This is the latest recevied weather packets stored in our database for station/object AB1AU. If no packets are shown the sender has not sent any weather packets the latest 10 day(s).
| Time | Temp. | Humidity | Pressure | Rain* | Wind** | Luminosity | Snow |
|---|---|---|---|---|---|---|---|
| 1777215521 | 15.56° C | 39% | 1021.5 hPa | 0 mm | - | 71 W/m² | - |
| 1777215218 | 15.56° C | 39% | 1021.4 hPa | 0 mm | - | 317 W/m² | - |
| 1777214913 | 15.56° C | 41% | 1021.6 hPa | 0 mm | - | 84 W/m² | - |
| 1777214612 | 15.56° C | 42% | 1021.5 hPa | 0 mm | - | 321 W/m² | - |
| 1777214308 | 15.56° C | 41% | 1021.5 hPa | 0 mm | - | 366 W/m² | - |
| 1777214007 | 15° C | 45% | 1021.6 hPa | 0 mm | - | 325 W/m² | - |
| 1777213702 | 14.44° C | 46% | 1021.6 hPa | 0 mm | - | 215 W/m² | - |
| 1777213398 | 15° C | 43% | 1021.6 hPa | 0 mm | - | 270 W/m² | - |
| 1777213095 | 14.44° C | 46% | 1021.7 hPa | 0 mm | - | 147 W/m² | - |
| 1777212792 | 13.89° C | 46% | 1021.6 hPa | 0 mm | - | 304 W/m² | - |
| 1777212488 | 13.89° C | 46% | 1021.4 hPa | 0 mm | - | 311 W/m² | - |
| 1777212183 | 13.89° C | 47% | 1021.6 hPa | 0 mm | - | 340 W/m² | - |
| 1777211878 | 13.33° C | 47% | 1021.7 hPa | 0 mm | - | 256 W/m² | - |
| 1777211576 | 12.78° C | 50% | 1021.9 hPa | 0 mm | - | 226 W/m² | - |
| 1777211273 | 12.78° C | 46% | 1021.9 hPa | 0 mm | - | 224 W/m² | - |
| 1777210970 | 12.78° C | 47% | 1021.9 hPa | 0 mm | - | 432 W/m² | - |
| 1777210670 | 12.78° C | 48% | 1021.7 hPa | 0 mm | - | 274 W/m² | - |
| 1777210366 | 12.78° C | 50% | 1021.7 hPa | 0 mm | - | 293 W/m² | - |
| 1777210063 | 12.78° C | 47% | 1021.9 hPa | 0 mm | - | 439 W/m² | - |
| 1777209758 | 12.78° C | 48% | 1021.7 hPa | 0 mm | - | 335 W/m² | - |
| 1777209454 | 12.22° C | 50% | 1021.7 hPa | 0 mm | - | 352 W/m² | - |
| 1777209151 | 11.67° C | 50% | 1021.7 hPa | 0 mm | - | 187 W/m² | - |
| 1777208846 | 11.11° C | 51% | 1021.6 hPa | 0 mm | - | 237 W/m² | - |
| 1777208543 | 11.67° C | 51% | 1021.7 hPa | 0 mm | - | 364 W/m² | - |
| 1777208240 | 11.67° C | 52% | 1021.7 hPa | 0 mm | - | 405 W/m² | - |
* Rain latest hour (hover to see other rain measurements)
** Current wind speed in m/s (hover to see current wind gust speed)